Simultaneous Nadir Overpasses (SNOs) Predictions

Prediction of SNOs between AQUA and METOP-B Satellite Orbit:

Table of predicted SNOs for the next 14.0 days since TLE Epoch: 8/17/2013
Index Date (AQUA) Time (AQUA) Lat,Lon (AQUA) SZA (AQUA ) Date (METOP-B) Time (METOP-B) Lat,Lon (METOP-B) SZA (METOP-B ) Distance(km) Time Diff (sec)
1 08/18/2013 08:55:34 73.72, 40.62 60.75 08/18/2013 08:54:51 73.71, 40.62 60.75 0.91 43
2 08/18/2013 09:45:01 -73.79,-151.91 119.16 08/18/2013 09:45:32 -73.78,-151.89 119.18 1.57 31
3 08/21/2013 04:29:48 73.73, 107.03 61.68 08/21/2013 04:29:14 73.70, 107.01 61.66 3.06 34
4 08/21/2013 05:19:15 -73.80, -85.48 118.23 08/21/2013 05:19:55 -73.78, -85.49 118.26 2.75 40
5 08/24/2013 00:04:00 73.72, 173.51 62.61 08/24/2013 00:03:35 73.74, 173.51 62.64 3.25 25
6 08/24/2013 00:53:27 -73.78, -19.00 117.31 08/24/2013 00:54:17 -73.77, -19.10 117.33 3.60 50
7 08/26/2013 18:48:38 -73.32, 73.16 116.86 08/26/2013 18:47:28 -73.28, 71.52 116.83 52.73 70
8 08/26/2013 19:38:13 73.72,-120.06 63.58 08/26/2013 19:37:58 73.73,-120.11 63.60 1.88 15
9 08/26/2013 20:27:40 -73.78, 47.44 116.34 08/26/2013 20:28:39 -73.81, 47.39 116.33 3.07 59
10 08/29/2013 14:22:57 -73.65, 138.90 115.52 08/29/2013 14:21:44 -73.61, 138.67 115.54 8.59 73
11 08/29/2013 15:12:26 73.75, -53.68 64.60 08/29/2013 15:12:20 73.76, -53.63 64.61 1.86 6
12 08/29/2013 16:01:53 -73.81, 113.84 115.33 08/29/2013 16:03:01 -73.84, 113.87 115.31 3.34 68




NCC Satellite Simultaneous Nadir Overpasses (SNOs) Prediction Service
